全球星 M028星 (GLOBALSTAR M028)

导读 | 星芒AI

GLOBALSTAR M028 是 Globalstar 卫星通信公司部署的一颗低轨移动通信卫星,主要用于提供全球范围内的语音和数据通信服务。该卫星属于 Globalstar 第二代卫星星座,设计寿命约为 15 年,运行在约 1414 公里的近地轨道上。M028 采用先进的通信技术,支持手持终端和移动设备的连接,广泛应用于偏远地区、海上和航空通信等领域,提升了全球通信的覆盖与可靠性。

基本信息
目录编号:
25875
目录名称:
GLOBALSTAR M028
国际标识:
1999-041D
轨道中心:
EARTH
卫星名称:
全球星 M028星
卫星全名:
全球星 M028星 (GLOBALSTAR M028)
卫星状态:
在轨 (已飞行9580 天)
发射日期:
1999-07-25 UTC
国别 :
(GLOB)
星等 :
--
轨道信息
数据来源 国际轨道数据
星历时间: 2025-10-16T11:47:19+0800
6小时前
查看轨道信息
半长轴: 7840.167km
偏心率: 0.0063355
轨道倾角: 51.962°
近地点辐角 334.900°
升交点赤经 192.351°
平近点角 24.879°
近地点: 1412.36km
远地点: 1511.704km
周期: 115.146分钟
每日圈数: 12.505896
详细信息
固有亮度:
5
最大亮度:
7.9
平衡模式:
三轴稳定
覆盖范围:
全球
运营商:
全球星公司
运营商所在国:
美国
使用方式:
暂无
卫星简介
全球星星座由48颗卫星加8颗备份星组成。这些卫星分布在8个倾角为52度的圆形轨道平面上,每个轨道平面6颗卫星,另有1 颗备用星。轨道高度约为1414km,传输时延和处理时延小于300ms,整个系统的覆盖区为南北纬70度以内的地区。该卫星已退役。
2D轨道图
3D轨道图
轨道高度分析图
轨道倾角分析图
轨道综合分析图
查看轨道综合分析图